FW0954 Weather Reports


time (UTC)temp
C
wind
direction
speed
KPH
gust
KPH
rain 1hr
cm
rain 24hr
cm
rain mn
cm
humidity
%
barometer
mb
20260505041501 22 171 4.8 16.1 0.00 0.00 0.00 79 1006.8
20260505041002 22 171 4.8 11.3 0.00 0.00 0.00 79 1006.8
20260505040501 22 171 4.8 11.3 0.00 0.00 0.00 79 1006.9
20260505040002 22 173 4.8 12.9 0.00 0.00 0.00 79 1006.8
20260505035501 22 177 4.8 12.9 0.00 0.00 0.00 78 1006.8
20260505035001 22 182 4.8 12.9 0.00 0.00 0.00 78 1006.6
20260505034502 22 175 4.8 12.9 0.00 0.00 0.00 78 1006.5
20260505033001 22 166 4.8 11.3 0.00 0.00 0.00 77 1006.6
20260505032502 22 170 4.8 11.3 0.00 0.00 0.00 77 1006.6
20260505032001 23 181 4.8 12.9 0.00 0.00 0.00 77 1006.8
20260505025501 23 183 3.2 12.9 0.00 0.00 0.00 76 1006.9
20260505025002 23 184 3.2 11.3 0.00 0.00 0.00 76 1006.8
20260505024502 23 187 1.6 8.0 0.00 0.00 0.00 76 1006.9
20260505024001 23 181 1.6 6.4 0.00 0.00 0.00 75 1006.7
20260505023001 23 171 3.2 12.9 0.00 0.00 0.00 75 1006.4
20260505022502 23 169 4.8 12.9 0.00 0.00 0.00 75 1006.5
20260505022001 23 167 4.8 14.5 0.00 0.00 0.00 74 1006.4
20260505021501 23 182 6.4 14.5 0.00 0.00 0.00 74 1006.4
20260505021001 23 188 4.8 11.3 0.00 0.00 0.00 74 1006.3
20260505020502 23 181 4.8 12.9 0.00 0.00 0.00 74 1006.4
20260505020002 23 183 4.8 12.9 0.00 0.00 0.00 73 1006.4
20260505015501 23 179 4.8 14.5 0.00 0.00 0.00 73 1006.5
20260505015002 24 177 4.8 14.5 0.00 0.00 0.00 73 1006.5
20260505014502 24 184 6.4 14.5 0.00 0.00 0.00 73 1006.5
20260505014001 24 187 6.4 19.3 0.00 0.00 0.00 72 1006.4
20260505013502 24 187 6.4 20.9 0.00 0.00 0.00 72 1006.4
20260505013002 24 185 4.8 20.9 0.00 0.00 0.00 72 1006.5
20260505012501 24 175 6.4 12.9 0.00 0.00 0.00 72 1006.5
20260505012002 24 183 6.4 17.7 0.00 0.00 0.00 71 1006.4
20260505011501 24 186 6.4 17.7 0.00 0.00 0.00 71 1006.4
20260505010502 25 179 4.8 12.9 0.00 0.00 0.00 71 1006.4
20260505005502 25 190 6.4 16.1 0.00 0.00 0.00 70 1006.4
20260505005001 25 185 6.4 16.1 0.00 0.00 0.00 70 1006.4
20260505004502 25 188 8.0 16.1 0.00 0.00 0.00 69 1006.6
20260505004001 25 185 6.4 20.9 0.00 0.00 0.00 69 1006.5
20260505003001 26 187 8.0 22.5 0.00 0.00 0.00 67 1006.3
20260505002502 26 186 9.7 19.3 0.00 0.00 0.00 67 1006.5
20260505002002 26 189 11.3 20.9 0.00 0.00 0.00 67 1006.6
20260505001502 26 192 11.3 24.1 0.00 0.00 0.00 67 1006.6
20260505001001 26 188 11.3 24.1 0.00 0.00 0.00 67 1006.6
20260505000502 26 183 11.3 24.1 0.00 0.00 0.00 67 1006.5
20260505000002 26 188 11.3 27.4 0.00 0.00 0.00 66 1006.6
20260504235502 26 192 11.3 27.4 0.00 0.00 0.00 66 1006.7
20260504235002 26 189 9.7 27.4 0.00 0.00 0.00 66 1006.8
20260504234501 26 190 11.3 29.0 0.00 0.00 0.00 66 1007.0
20260504234002 26 190 11.3 29.0 0.00 0.00 0.00 66 1006.8
20260504233501 26 191 9.7 25.7 0.00 0.00 0.00 65 1006.9
20260504233002 26 188 9.7 22.5 0.00 0.00 0.00 65 1006.8
20260504232501 26 184 11.3 27.4 0.00 0.00 0.00 65 1006.8
20260504232002 26 181 11.3 27.4 0.00 0.00 0.00 65 1006.8
20260504231502 26 182 9.7 24.1 0.00 0.00 0.00 64 1006.9
20260504231002 27 190 11.3 25.7 0.00 0.00 0.00 64 1007.0
20260504230502 27 194 11.3 29.0 0.00 0.00 0.00 64 1007.2
20260504230002 27 186 11.3 29.0 0.00 0.00 0.00 63 1007.3
20260504225502 27 183 11.3 30.6 0.00 0.00 0.00 63 1007.4
20260504225002 27 186 11.3 30.6 0.00 0.00 0.00 63 1007.4
20260504224501 27 190 11.3 27.4 0.00 0.00 0.00 63 1007.3
20260504224002 27 191 12.9 30.6 0.00 0.00 0.00 63 1007.3
20260504222001 27 187 9.7 25.7 0.00 0.00 0.00 63 1007.3
20260504221502 27 184 9.7 24.1 0.00 0.00 0.00 63 1007.4
20260504220502 27 183 9.7 24.1 0.00 0.00 0.00 64 1007.7
20260504220002 27 186 9.7 22.5 0.00 0.00 0.00 64 1007.6
20260504215501 27 186 11.3 30.6 0.00 0.00 0.00 64 1007.7
20260504215002 27 186 11.3 30.6 0.00 0.00 0.00 63 1007.8
20260504214502 27 189 9.7 22.5 0.00 0.00 0.00 63 1007.9
20260504214001 27 185 11.3 27.4 0.00 0.00 0.00 63 1007.9
20260504213501 27 188 11.3 27.4 0.00 0.00 0.00 62 1008.1
20260504213002 27 189 11.3 22.5 0.00 0.00 0.00 61 1008.1
20260504212502 27 186 11.3 25.7 0.00 0.00 0.00 61 1008.2
20260504212002 27 189 11.3 25.7 0.00 0.00 0.00 60 1008.4
20260504211502 27 193 9.7 20.9 0.00 0.00 0.00 61 1008.3
20260504210003 27 189 9.7 25.7 0.00 0.00 0.00 60 1008.6
20260504205501 27 187 8.0 24.1 0.00 0.00 0.00 61 1008.7
20260504204502 27 193 8.0 24.1 0.00 0.00 0.00 60 1008.8
20260504204002 27 182 9.7 27.4 0.00 0.00 0.00 61 1009.0
20260504203502 27 182 11.3 27.4 0.00 0.00 0.00 61 1009.0
20260504203002 27 183 11.3 32.2 0.00 0.00 0.00 60 1009.1
20260504202001 27 193 12.9 27.4 0.00 0.00 0.00 58 1009.5
20260504201502 27 191 11.3 29.0 0.00 0.00 0.00 58 1009.6
20260504201002 27 190 11.3 29.0 0.00 0.00 0.00 58 1009.7
20260504200502 27 189 11.3 27.4 0.00 0.00 0.00 58 1009.8
20260504200002 27 183 9.7 22.5 0.00 0.00 0.00 58 1009.8
20260504195002 27 188 12.9 25.7 0.00 0.00 0.00 58 1009.9
20260504194502 27 185 12.9 27.4 0.00 0.00 0.00 57 1010.0
20260504194002 27 192 11.3 27.4 0.00 0.00 0.00 57 1010.0
20260504193502 27 193 9.7 24.1 0.00 0.00 0.00 57 1010.2
20260504193002 27 191 9.7 24.1 0.00 0.00 0.00 57 1010.2
20260504192502 27 191 9.7 24.1 0.00 0.00 0.00 57 1010.5
20260504192002 27 188 9.7 27.4 0.00 0.00 0.00 58 1010.4
20260504190502 26 192 12.9 32.2 0.00 0.00 0.00 57 1010.7
20260504190002 27 195 11.3 27.4 0.00 0.00 0.00 57 1010.7
20260504185502 27 196 8.0 24.1 0.00 0.00 0.00 56 1010.7
20260504185002 26 194 9.7 24.1 0.00 0.00 0.00 57 1010.9
20260504184502 26 192 12.9 29.0 0.00 0.00 0.00 57 1010.9
20260504184003 26 186 12.9 32.2 0.00 0.00 0.00 56 1011.0
20260504183502 26 190 11.3 32.2 0.00 0.00 0.00 56 1011.1
20260504183002 26 193 11.3 32.2 0.00 0.00 0.00 56 1011.1
20260504182502 26 187 11.3 32.2 0.00 0.00 0.00 55 1011.4
20260504182002 26 191 9.7 27.4 0.00 0.00 0.00 55 1011.4
20260504181502 26 193 9.7 22.5 0.00 0.00 0.00 54 1011.3
20260504181002 26 182 9.7 29.0 0.00 0.00 0.00 54 1011.3
20260504180502 26 185 8.0 29.0 0.00 0.00 0.00 54 1011.4
20260504180002 26 194 9.7 22.5 0.00 0.00 0.00 56 1011.4
20260504175502 26 191 11.3 32.2 0.00 0.00 0.00 55 1011.6
20260504175002 26 191 11.3 32.2 0.00 0.00 0.00 54 1011.8
20260504174502 25 194 12.9 25.7 0.00 0.00 0.00 55 1011.8
20260504174002 25 191 12.9 25.7 0.00 0.00 0.00 56 1011.8
20260504173503 25 185 11.3 27.4 0.00 0.00 0.00 55 1011.8
20260504173002 25 189 8.0 27.4 0.00 0.00 0.00 56 1011.9
20260504172503 25 197 9.7 22.5 0.00 0.00 0.00 56 1012.1
20260504172003 25 189 11.3 24.1 0.00 0.00 0.00 56 1012.3
20260504171502 25 184 9.7 24.1 0.00 0.00 0.00 56 1012.5
20260504170502 25 192 12.9 30.6 0.00 0.00 0.00 58 1012.7
20260504151003 21 193 12.9 25.7 0.00 0.00 0.00 69 1013.6
20260504150502 21 189 11.3 32.2 0.00 0.00 0.00 69 1013.4
20260504141002 19 198 8.0 19.3 0.00 0.00 0.00 73 1013.8
20260504140503 19 204 8.0 22.5 0.00 0.00 0.00 74 1014.0
20260504130503 17 196 6.4 16.1 0.00 0.00 0.00 79 1013.9
20260504110503 16 194 3.2 9.7 0.00 0.00 0.00 81 1013.4
20260504100503 16 194 4.8 9.7 0.00 0.00 0.00 78 1013.7
20260504082003 17 185 6.4 14.5 0.00 0.00 0.00 71 1014.1
20260504081504 17 193 6.4 16.1 0.00 0.00 0.00 71 1014.1
20260504081003 17 198 4.8 16.1 0.00 0.00 0.00 71 1014.1
20260504050004 19 184 3.2 9.7 0.00 0.00 0.00 64 1016.0
20260504045503 19 183 3.2 11.3 0.00 0.00 0.00 64 1016.0
20260504045004 19 182 3.2 11.3 0.00 0.00 0.00 64 1016.1
20260504044504 19 182 3.2 8.0 0.00 0.00 0.00 63 1016.1
20260504044002 20 188 3.2 11.3 0.00 0.00 0.00 63 1016.1
20260504043502 20 193 4.8 11.3 0.00 0.00 0.00 63 1016.1
20260504043002 20 192 3.2 8.0 0.00 0.00 0.00 63 1016.1
20260504042502 20 191 3.2 9.7 0.00 0.00 0.00 62 1016.1
20260504042002 20 189 4.8 11.3 0.00 0.00 0.00 62 1016.1